Terug naar catalogus

CZ-2D R/B

ActiefVLEO
NORAD 68141·ROCKET BODY·🇨🇳 China

Gelanceerd Mar 12, 2026 vanaf Xichang Satellite Launch Center

Loading…

Volgende Passages (komende 24 uur)

TLE

VersSource: Space-Track

Epoch: Sep 14, 2026, 21:11 UTC

1 68141U 26048C   26257.88286091  .00001133  00000-0  10169-3 0  9992
2 68141  35.1293  85.4672 0015136 160.4380 199.6912 14.95971144 27848

Volg CZ-2D R/B in realtime met AllMySat

Download on the App Store